This demonstration page uses our WeatherBlox Daily Observations layout. Learn more.

Left ArrowRight Arrow

Hourly Observations for November 15, 2015

Temp ( °F °C ) Dew Point ( °F °C ) Humidity (%) Winds ( mph kmh ) Pressure ( in mb ) Visibility ( mi km ) Precip ( " mm )
12:52 am 00:52 Clear 44 6.7 31 -0.6 60 60 SSE 10 17 30.29 1026 10 16 0.00 0.00
1:52 am 01:52 Clear 47 8.3 32 0 56 56 SSE 10 17 30.28 1025 10 16 0.00 0.00
2:52 am 02:52 Partly Cloudy 48 8.9 32 0 54 54 SSE 12 19 30.28 1025 10 16 0.00 0.00
3:52 am 03:52 Partly Cloudy 47 8.3 32 0 56 56 SSE 12 19 30.27 1025 10 16 0.00 0.00
4:52 am 04:52 Mostly Cloudy 48 8.9 32 0 54 54 SSE 12 19 30.28 1025 10 16 0.00 0.00
5:52 am 05:52 Cloudy 49 9.4 32 0 52 52 SSE 12 19 30.28 1026 10 16 0.00 0.00
6:52 am 06:52 Mostly Cloudy 49 9.4 32 0 52 52 SSE 13 20 30.29 1026 10 16 0.00 0.00
7:52 am 07:52 Mostly Cloudy 50 10 32 0 50 50 SSE 14 22 30.29 1026 10 16 0.00 0.00
8:52 am 08:52 Mostly Sunny 51 10.6 33 0.6 50 50 S 13 20 30.29 1026 10 16 0.00 0.00
9:52 am 09:52 Mostly Cloudy with Light Rain 52 11.1 34 1.1 50 50 S 12 19 30.30 1026 10 16 0.00 0.03
10:52 am 10:52 Cloudy with Light Rain 51 10.6 39 3.9 64 64 S 9 15 30.29 1026 10 16 0.00 0.03
11:52 am 11:52 Cloudy 55 12.8 38 3.3 53 53 S 15 24 30.24 1024 10 16 0.00 0.03
12:52 pm 12:52 Cloudy 56 13.3 38 3.3 51 51 S 16 26 30.22 1023 10 16 0.00 0.00
1:52 pm 13:52 Cloudy 58 14.4 37 2.8 46 46 S 16 26 30.19 1022 10 16 0.00 0.03
2:52 pm 14:52 Cloudy 57 13.9 38 3.3 49 49 S 9 15 30.17 1022 10 16 0.00 0.03
3:52 pm 15:52 Cloudy 57 13.9 37 2.8 47 47 SSE 12 19 30.15 1021 10 16 0.00 0.00
4:52 pm 16:52 Cloudy 56 13.3 34 1.1 44 44 SSE 16 26 30.14 1021 10 16 0.00 0.00
5:52 pm 17:52 Cloudy 55 12.8 34 1.1 45 45 SSE 13 20 30.13 1020 10 16 0.00 0.00
6:52 pm 18:52 Cloudy 55 12.8 34 1.1 45 45 SSE 15 24 30.12 1020 10 16 0.00 0.00
7:52 pm 19:52 Cloudy 56 13.3 34 1.1 44 44 SSE 15 24 30.11 1020 10 16 0.00 0.00
8:52 pm 20:52 Cloudy 55 12.8 34 1.1 45 45 SSE 15 24 30.12 1020 10 16 0.00 0.00
9:52 pm 21:52 Mostly Cloudy 53 11.7 37 2.8 55 55 SSE 16 26 30.10 1019 10 16 0.01 0.25
10:52 pm 22:52 Mostly Cloudy 54 12.2 35 1.7 49 49 S 15 24 30.10 1019 10 16 0.00 0.03
11:52 pm 23:52 Cloudy with Rain 50 10 41 5 71 71 SSE 16 26 30.08 1019 7 11 0.03 0.76

Powered by AerisWeather